Weather Service Report


415 
ASUS46 KSEW 160410
RWRWA 

WASHINGTON REGIONAL WEATHER ROUNDUP
NATIONAL WEATHER SERVICE SEATTLE WA
900 PM PDT SUN JUL 15 2018

NOTE:"FAIR" INDICATES FEW OR NO CLOUDS BELOW 12,000 FEET WITH NO 
SIGNIFICANT WEATHER AND/OR OBSTRUCTIONS TO VISIBILITY.

WAZ507-509-555>559-160500-
SEATTLE, TACOMA, EVERETT, AND VICINITY
  
CITY           SKY/WX    TMP DP  RH WIND       PRES   REMARKS
EVERETT        CLEAR     74  52  46 NW8       29.98R                  
BOEING FIELD   CLEAR     80  49  33 NW5       29.94R                  
RENTON         CLEAR     84  51  31 NW9       29.93R                  
SEATAC AIRPORT PTCLDY    82  51  34 N8        29.96R                  
JBLM-MCCHORD   CLEAR     81  55  39 NE6       29.95R                  
PUYALLUP       FAIR      75  54  46 CALM      29.96S                  
BREMERTON      CLEAR     79  45  29 NE12      29.96R                  
JBLM-FT LEWIS  CLEAR     84  51  31 N9        29.94R                  
TACOMA NARROWS CLEAR     79  46  31 N10       29.95R                  
$$
 
WAZ001-503-506-510-514-515-160500-
NORTH INTERIOR
  
CITY           SKY/WX    TMP DP  RH WIND       PRES   REMARKS
BELLINGHAM     CLEAR     70  55  59 CALM      29.95S                  
FRIDAY HARBOR  CLEAR     67  51  56 CALM      29.97S                  
EASTSOUND      CLEAR     70  54  56 CALM      29.95S                  
PORT ANGELES   CLEAR     72  48  42 W6        29.99S                  
EDIZ HOOK      FAIR      59  49  68 W12G18    29.98R                  
PORT TOWNSEND  FAIR      73  48  40 NW8G14    29.97R                  
NAS WHIDBEY    PTCLDY    62  52  69 CALM      30.01R                  
ARLINGTON      CLEAR     76  48  37 NW9       29.95R                  
BURLINGTON     CLEAR     68  52  56 W8        29.96R                  
$$
 
WAZ020-022-039-040-504-511-512-160500-
SOUTHWEST INTERIOR
  
CITY           SKY/WX    TMP DP  RH WIND       PRES   REMARKS
SHELTON        CLEAR     84  52  33 CALM      29.93R                  
OLYMPIA        CLEAR     81  42  25 N7        29.94R                  
CHEHALIS       FAIR      82  55  39 CALM      29.94R                  
KELSO          CLEAR     78  56  46 VRB3      29.94R                  
VANCOUVER      PTCLDY    88  55  32 NW7       29.88R                  
SCAPPOOSE, OR  PTCLDY    84  52  33 NW9       29.89R                  
PORTLAND, OR   PTCLDY    87  56  34 NW8       29.89R                  
$$
 
WAZ021-516-517-160500-
WASHINGTON COAST
  
CITY           SKY/WX    TMP DP  RH WIND       PRES   REMARKS
FORKS          CLEAR     68  44  42 NW6       29.98S                  
HOQUIAM        CLEAR     63  57  81 SW9       29.98R                  
ASTORIA, OR    CLEAR     61  56  83 S8        30.00R                  
$$
 
WAZ019-023-024-040-567>569-160500-
CASCADE MOUNTAINS AND COLUMBIA GORGE
  
CITY           SKY/WX    TMP DP  RH WIND       PRES   REMARKS
STAMPEDE PASS  NOT AVBL                                               
TROUTDALE, OR  PTCLDY    86  57  37 W7        29.87R                  
HOOD RIVER, OR PTCLDY    82  54  36 CALM      29.89R                  
THE DALLES, OR CLEAR     91  52  26 N9        29.85R                  
$$

WAZ026-027-041>044-520-521-160500-
EAST SLOPES
  
CITY           SKY/WX    TMP DP  RH WIND       PRES   REMARKS
OMAK           CLEAR     76  52  43 CALM      29.91R                  
WENATCHEE      CLEAR     80  43  26 E8        29.91R                  
ELLENSBURG     CLEAR     79  48  33 N9        29.95R                  
YAKIMA         PTCLDY    87  44  22 SE5       29.91R                  
SUNNYSIDE ARPT PTCLDY    76  62  62 N3        29.89R                  
YAKIMA TC        N/A     87  33  14 SE9       29.90R                  
$$

WAZ028-034-035-160500-
COLUMBIA BASIN
  
CITY           SKY/WX    TMP DP  RH WIND       PRES   REMARKS
EPHRATA        PTCLDY    85  34  16 W6        29.91S                  
MOSES LAKE     PTCLDY    87  35  15 W6        29.92R                  
PASCO          PTCLDY    77  59  53 NW3       29.86S                  
RICHLAND ARPT  PTCLDY    84  48  28 CALM      29.86R                  
HERMISTON, OR  PTCLDY    82  38  20 CALM      29.87R                  
$$

WAZ036>038-160500-
NORTHEAST WASHINGTON
  
CITY           SKY/WX    TMP DP  RH WIND       PRES   REMARKS
SPOKANE GEIGER MOCLDY    83  32  16 W3        30.00S                  
SPOKANE FELTS  PTCLDY    78  33  19 N3        29.98R                  
FAIRCHILD AFB  CLEAR     82  33  17 CALM      30.01S                  
COEURDALENE,ID PTCLDY    73  44  35 CALM      30.01R                  
DEER PARK      PTCLDY    69  44  40 CALM      30.00R                  
$$

WAZ029>033-160500-
SOUTHEAST WASHINGTON
  
CITY           SKY/WX    TMP DP  RH WIND       PRES   REMARKS
PULLMAN        MOCLDY    73  50  44 CALM      30.03R                  
LEWISTON, ID   CLOUDY    85  37  18 SE3       29.94R                  
WALLA WALLA    MOCLDY    86  44  23 SE6       29.90S                  
PENDLETON, OR  PTCLDY    84  32  15 NE3       29.93R                  
$$
  

Return to Home page


Western Regional Climate Center, wrcc@dri.edu